Regional Weather Roundup
Issued by NWS

Home | Current Version | Previous Version | Graphics & Text | Print | Product List | Glossary On
Versions: 1 2 3 4 5 6 7 8 9 10 11 12 13 14 15 16 17 18 19 20 21 22 23 24 25 26 27 28 29 30 31 32 33 34 35 36 37 38 39 40 41 42 43 44 45 46 47 48 49 50
000
ASUS43 KFSD 172302
RWRSD

WEATHER ROUNDUP FOR SOUTH DAKOTA
NATIONAL WEATHER SERVICE SIOUX FALLS SD
600 PM CDT TUE OCT 17 2017

NOTE: "FAIR" INDICATES FEW OR NO CLOUDS BELOW 12,000 FEET WITH NO
SIGNIFICANT WEATHER AND/OR OBSTRUCTIONS TO VISIBILITY.


SDZ001>005-009-010-012>017-180000-
NORTHWEST AND NORTH CENTRAL SOUTH DAKOTA

CITY           SKY/WX    TMP DP  RH WIND       PRES   REMARKS
BUFFALO          N/A     76  16  10 SW15      29.75F
FAITH            N/A     76  21  12 S10       29.83F
MOBRIDGE       CLEAR     76  38  25 S10       29.77F
$$

SDZ012>016-024>037-041>051-057-063-072>074-180000-
SOUTHWEST AND SOUTH CENTRAL SOUTH DAKOTA

CITY           SKY/WX    TMP DP  RH WIND       PRES   REMARKS
RAPID CTY ARPT SUNNY     75  25  15 SE9       29.84F
PIERRE         CLEAR     73  41  31 S8        29.82F
CUSTER         SUNNY     65  15  14 W10       30.00F
ELLSWORTH AFB  SUNNY     75  24  15 E7        29.84F
PHILIP         CLEAR     76  29  17 SW8       29.84S
PINE RIDGE     SUNNY     77  19  11 SW9       29.91F
SPEARFISH      FAIR      72  21  15 SW9       29.91S
WINNER         FAIR      72  45  37 SE9       29.87F
$$

SDZ004>011-016>023-039-040-180000-
NORTHEAST SOUTH DAKOTA

CITY           SKY/WX    TMP DP  RH WIND       PRES   REMARKS
ABERDEEN       CLEAR     74  39  28 S9        29.81F
WATERTOWN      CLEAR     66  46  48 S10       29.87F
BROOKINGS      CLEAR     71  42  35 S8        29.90F
SISSETON         N/A     71  45  39 SW12      29.80F
$$

SDZ017-020-022-023-036>040-048>070-180000-
SOUTHEAST SOUTH DAKOTA

CITY           SKY/WX    TMP DP  RH WIND       PRES   REMARKS
SIOUX FALLS    CLEAR     72  44  36 S8        29.92F
HURON          CLEAR     74  42  31 S10       29.85F
CHAMBERLAIN    CLEAR     74  42  31 S8        29.86F
MITCHELL       CLEAR     76  39  26 S7        29.89F
YANKTON        CLEAR     77  40  26 SE5       29.92F
$$

ABBREVIATIONS USED IN REMARKS
   TC - TEMPERATURE IN CELSIUS
  WCI - WIND CHILL INDEX
   HX - HEAT INDEX
  VSB - VISIBILITY




USA.gov is the U.S. government's official web portal to all federal, state and local government web resources and services.